GIA105 WIMM-OEMA

Flight info

Callsign GIA105
Flight time N/A
Altitude 32000
Route MAIMU DCT MEMAK N563 REXOD L883 UMILA N569 TOKRA DCT ITRUX Y511 ELONU
Aircraft B77W/H-SDE1E2E3FGHIJ2J3J4J5M1RWXY/LB1D1

Departure

Time N/A
Airport Kualanamu International Airport (WIMM)

Arrival

Time 2026-04-24 19:28
Airport Prince Mohammad Bin Abdulaziz Airport (OEMA)
Time Latitude Longitude Altitude Speed Heading
2026-04-24 13:32 10.71130 82.68300 31826 ft 503 kts 292°
2026-04-24 13:32 10.72600 82.65057 31828 ft 504 kts 292°
2026-04-24 13:33 10.75522 82.58604 31828 ft 504 kts 292°
2026-04-24 13:33 10.78441 82.52159 31829 ft 503 kts 292°
2026-04-24 13:34 10.81359 82.45709 31827 ft 502 kts 292°
2026-04-24 13:34 10.84284 82.39239 31828 ft 502 kts 292°
2026-04-24 13:35 10.87218 82.32745 31829 ft 504 kts 292°
2026-04-24 13:35 10.90119 82.26320 31831 ft 502 kts 292°
2026-04-24 13:36 10.93031 82.19868 31831 ft 502 kts 292°
2026-04-24 13:36 10.95944 82.13407 31831 ft 503 kts 292°
2026-04-24 13:37 10.98862 82.06930 31830 ft 503 kts 292°
2026-04-24 13:37 11.01761 82.00494 31829 ft 502 kts 292°
2026-04-24 13:38 11.04672 81.94023 31829 ft 501 kts 292°
2026-04-24 13:38 11.07579 81.87560 31824 ft 503 kts 291°
2026-04-24 13:39 11.10490 81.81081 31822 ft 503 kts 292°
2026-04-24 13:39 11.13399 81.74605 31809 ft 502 kts 291°
2026-04-24 13:40 11.16287 81.68169 31805 ft 503 kts 291°
2026-04-24 13:40 11.19193 81.61691 31804 ft 504 kts 291°
2026-04-24 13:41 11.22101 81.55203 31805 ft 503 kts 291°
2026-04-24 13:41 11.25010 81.48706 31805 ft 503 kts 291°
2026-04-24 13:42 11.27896 81.42258 31805 ft 503 kts 291°
2026-04-24 13:42 11.30803 81.35759 31805 ft 504 kts 291°
2026-04-24 13:43 11.33709 81.29259 31805 ft 504 kts 291°
2026-04-24 13:43 11.36625 81.22729 31806 ft 503 kts 291°
2026-04-24 13:44 11.39510 81.16266 31808 ft 504 kts 291°
2026-04-24 13:44 11.42415 81.09752 31805 ft 505 kts 291°
2026-04-24 13:45 11.45317 81.03242 31806 ft 505 kts 291°
2026-04-24 13:45 11.48205 80.96759 31808 ft 504 kts 291°
2026-04-24 13:46 11.51102 80.90250 31805 ft 504 kts 291°
2026-04-24 13:46 11.54003 80.83726 31807 ft 505 kts 291°
2026-04-24 13:47 11.56895 80.77222 31805 ft 502 kts 291°
2026-04-24 13:47 11.59772 80.70744 31807 ft 505 kts 290°
2026-04-24 13:48 11.62657 80.64243 31809 ft 503 kts 290°
2026-04-24 13:48 11.65551 80.57718 31807 ft 503 kts 290°
2026-04-24 13:49 11.68421 80.51244 31803 ft 502 kts 290°
2026-04-24 13:49 11.71282 80.44782 31799 ft 502 kts 290°
2026-04-24 13:50 11.74145 80.38313 31796 ft 501 kts 290°
2026-04-24 13:50 11.77032 80.31786 31800 ft 503 kts 290°
2026-04-24 13:51 11.79902 80.25293 31798 ft 502 kts 290°
2026-04-24 13:51 11.82758 80.18826 31802 ft 500 kts 289°
2026-04-24 13:52 11.85623 80.12332 31810 ft 500 kts 289°
2026-04-24 13:52 11.88455 80.05865 31811 ft 501 kts 289°
2026-04-24 13:53 11.91268 79.99412 31809 ft 496 kts 289°
2026-04-24 13:53 11.92660 79.96223 31809 ft 482 kts 289°
2026-04-24 13:53 11.94000 79.93150 31809 ft 473 kts 289°
2026-04-24 13:54 11.96680 79.86992 31813 ft 477 kts 289°
2026-04-24 13:54 11.99371 79.80808 31815 ft 476 kts 289°
2026-04-24 13:55 12.02047 79.74651 31818 ft 477 kts 289°
2026-04-24 13:55 12.04740 79.68457 31817 ft 475 kts 288°
2026-04-24 13:56 12.07402 79.62326 31817 ft 474 kts 288°
2026-04-24 13:56 12.10119 79.56191 31822 ft 476 kts 290°
2026-04-24 13:57 12.12922 79.50067 31818 ft 475 kts 289°
2026-04-24 13:57 12.15715 79.43948 31818 ft 475 kts 289°
2026-04-24 13:58 12.18492 79.37856 31823 ft 474 kts 289°
2026-04-24 13:58 12.21289 79.31712 31831 ft 474 kts 289°
2026-04-24 13:59 12.24066 79.25604 31833 ft 474 kts 289°
2026-04-24 13:59 12.26840 79.19497 31842 ft 474 kts 289°
2026-04-24 14:00 12.29596 79.13426 31844 ft 473 kts 289°
2026-04-24 14:00 12.32361 79.07330 31849 ft 472 kts 289°
2026-04-24 14:01 12.35131 79.01218 31854 ft 472 kts 289°
2026-04-24 14:01 12.37876 78.95158 31862 ft 473 kts 289°
2026-04-24 14:02 12.40636 78.89059 31881 ft 472 kts 289°
2026-04-24 14:02 12.43393 78.82964 31906 ft 471 kts 289°
2026-04-24 14:03 12.46141 78.76884 31944 ft 470 kts 289°
2026-04-24 14:03 12.48876 78.70828 31967 ft 471 kts 289°
2026-04-24 14:04 12.51621 78.64745 31954 ft 470 kts 289°
2026-04-24 14:04 12.54361 78.58670 31925 ft 470 kts 289°
2026-04-24 14:05 12.57079 78.52641 31912 ft 469 kts 289°
2026-04-24 14:05 12.59819 78.46555 31902 ft 471 kts 289°
2026-04-24 14:06 12.62556 78.40475 31917 ft 471 kts 289°
2026-04-24 14:06 12.65273 78.34435 31927 ft 468 kts 288°
2026-04-24 14:07 12.67996 78.28374 31951 ft 468 kts 288°
2026-04-24 14:07 12.70711 78.22329 31969 ft 468 kts 288°
2026-04-24 14:08 12.73429 78.16273 31979 ft 467 kts 288°
2026-04-24 14:08 12.76143 78.10221 31980 ft 468 kts 288°
2026-04-24 14:09 12.78855 78.04169 31984 ft 468 kts 288°
2026-04-24 14:09 12.81570 77.98103 31995 ft 468 kts 288°
2026-04-24 14:10 12.84279 77.92051 31995 ft 468 kts 288°
2026-04-24 14:10 12.86983 77.86002 32006 ft 468 kts 288°
2026-04-24 14:11 12.89673 77.79982 32004 ft 468 kts 288°
2026-04-24 14:12 12.93739 77.70876 32002 ft 465 kts 288°
2026-04-24 14:12 12.96578 77.64864 32008 ft 471 kts 292°
2026-04-24 14:13 12.99768 77.59018 32002 ft 469 kts 292°
2026-04-24 14:13 13.02936 77.53167 31998 ft 472 kts 292°
2026-04-24 14:14 13.06108 77.47277 31996 ft 469 kts 292°
2026-04-24 14:14 13.10826 77.38476 31988 ft 470 kts 292°
2026-04-24 14:15 13.13994 77.32552 32004 ft 470 kts 292°
2026-04-24 14:15 13.17121 77.26698 32004 ft 468 kts 292°
2026-04-24 14:16 13.20236 77.20865 32000 ft 461 kts 292°
2026-04-24 14:17 13.24816 77.12273 31997 ft 456 kts 292°
2026-04-24 14:17 13.29370 77.03719 31987 ft 457 kts 292°
2026-04-24 14:18 13.32403 76.98016 31978 ft 458 kts 291°
2026-04-24 14:18 13.35470 76.92247 31973 ft 456 kts 291°
2026-04-24 14:19 13.38502 76.86540 31971 ft 456 kts 291°
2026-04-24 14:19 13.41534 76.80828 31974 ft 457 kts 292°
2026-04-24 14:20 13.44568 76.75111 31967 ft 456 kts 291°
2026-04-24 14:20 13.47597 76.69398 31963 ft 456 kts 292°
2026-04-24 14:21 13.50619 76.63695 31958 ft 455 kts 291°
2026-04-24 14:21 13.53639 76.57989 31964 ft 455 kts 292°
2026-04-24 14:22 13.56657 76.52286 31956 ft 454 kts 291°
2026-04-24 14:23 13.61166 76.43759 31963 ft 454 kts 291°
2026-04-24 14:23 13.64197 76.38020 31968 ft 455 kts 291°
2026-04-24 14:24 13.67214 76.32307 31971 ft 454 kts 291°
2026-04-24 14:24 13.70227 76.26593 31975 ft 454 kts 291°
2026-04-24 14:25 13.72727 76.21852 31974 ft 453 kts 291°
2026-04-24 14:25 13.76213 76.15234 31972 ft 452 kts 291°
2026-04-24 14:26 13.79193 76.09573 31981 ft 452 kts 291°
2026-04-24 14:26 13.82174 76.03907 31982 ft 450 kts 291°
2026-04-24 14:27 13.85149 75.98247 31978 ft 451 kts 291°
2026-04-24 14:27 13.88127 75.92578 31970 ft 450 kts 291°
2026-04-24 14:28 13.91099 75.86917 31968 ft 450 kts 291°
2026-04-24 14:28 13.94087 75.81221 31955 ft 451 kts 291°
2026-04-24 14:29 13.97045 75.75577 31941 ft 451 kts 291°
2026-04-24 14:29 14.00017 75.69905 31931 ft 451 kts 291°
2026-04-24 14:30 14.02488 75.65185 31929 ft 450 kts 291°
2026-04-24 14:30 14.05958 75.58552 31929 ft 449 kts 291°
2026-04-24 14:31 14.08918 75.52889 31932 ft 451 kts 291°
2026-04-24 14:31 14.11874 75.47212 31921 ft 450 kts 291°
2026-04-24 14:32 14.14838 75.41515 31919 ft 449 kts 291°
2026-04-24 14:32 14.17794 75.35832 31923 ft 451 kts 291°
2026-04-24 14:33 14.20754 75.30133 31938 ft 451 kts 290°
2026-04-24 14:33 14.23692 75.24473 31933 ft 450 kts 290°
2026-04-24 14:34 14.26647 75.18779 31925 ft 449 kts 290°
2026-04-24 14:34 14.29602 75.13076 31919 ft 450 kts 290°
2026-04-24 14:35 14.32551 75.07385 31914 ft 450 kts 290°
2026-04-24 14:35 14.35482 75.01726 31910 ft 448 kts 290°
2026-04-24 14:36 14.38408 74.96068 31903 ft 448 kts 290°
2026-04-24 14:36 14.41336 74.90402 31893 ft 449 kts 290°
2026-04-24 14:37 14.44271 74.84723 31884 ft 450 kts 290°
2026-04-24 14:37 14.47208 74.79033 31875 ft 450 kts 290°
2026-04-24 14:38 14.50167 74.73357 31883 ft 451 kts 291°
2026-04-24 14:38 14.53184 74.67667 31866 ft 452 kts 291°
2026-04-24 14:39 14.56175 74.62026 31850 ft 449 kts 291°
2026-04-24 14:39 14.59183 74.56339 31829 ft 449 kts 291°
2026-04-24 14:40 14.62182 74.50664 31816 ft 448 kts 291°
2026-04-24 14:40 14.65050 74.45229 31808 ft 450 kts 291°
2026-04-24 14:41 14.68029 74.39585 31813 ft 450 kts 291°
2026-04-24 14:41 14.71035 74.33884 31815 ft 449 kts 290°
2026-04-24 14:42 14.73501 74.29202 31817 ft 447 kts 290°
2026-04-24 14:42 14.76986 74.22579 31822 ft 450 kts 290°
2026-04-24 14:43 14.79955 74.16936 31818 ft 449 kts 290°
2026-04-24 14:43 14.82942 74.11255 31817 ft 447 kts 290°
2026-04-24 14:44 14.85905 74.05611 31812 ft 449 kts 290°
2026-04-24 14:44 14.88891 73.99921 31799 ft 449 kts 290°
2026-04-24 14:45 14.91854 73.94273 31794 ft 449 kts 290°
2026-04-24 14:45 14.94827 73.88609 31791 ft 446 kts 290°
2026-04-24 14:46 14.97774 73.82986 31794 ft 449 kts 290°
2026-04-24 14:46 15.00747 73.77312 31792 ft 449 kts 290°
2026-04-24 14:47 15.03223 73.72571 31790 ft 449 kts 290°
2026-04-24 14:47 15.06671 73.65967 31790 ft 445 kts 290°
2026-04-24 14:48 15.09592 73.60361 31796 ft 447 kts 290°
2026-04-24 14:48 15.12557 73.54672 31777 ft 448 kts 290°
2026-04-24 14:49 15.15523 73.48972 31777 ft 448 kts 290°
2026-04-24 14:49 15.18475 73.43301 31778 ft 447 kts 290°
2026-04-24 14:50 15.21410 73.37653 31782 ft 449 kts 290°
2026-04-24 14:50 15.24364 73.31969 31788 ft 448 kts 290°
2026-04-24 14:51 15.27306 73.26302 31789 ft 448 kts 290°
2026-04-24 14:51 15.30230 73.20665 31791 ft 445 kts 290°
2026-04-24 14:52 15.33168 73.14996 31784 ft 447 kts 290°
2026-04-24 14:52 15.36088 73.09358 31785 ft 444 kts 290°
2026-04-24 14:53 15.39017 73.03695 31788 ft 448 kts 290°
2026-04-24 14:53 15.41954 72.98016 31784 ft 447 kts 290°
2026-04-24 14:54 15.44878 72.92361 31786 ft 446 kts 290°
2026-04-24 14:54 15.47822 72.86656 31784 ft 449 kts 290°
2026-04-24 14:55 15.50261 72.81930 31785 ft 447 kts 290°
2026-04-24 14:55 15.53671 72.75314 31781 ft 448 kts 290°
2026-04-24 14:56 15.56582 72.69660 31781 ft 446 kts 290°
2026-04-24 14:56 15.59509 72.63957 31781 ft 445 kts 290°
2026-04-24 14:57 15.62420 72.58297 31776 ft 448 kts 291°
2026-04-24 14:57 15.65339 72.52645 31776 ft 448 kts 291°
2026-04-24 14:58 15.68257 72.46959 31769 ft 445 kts 291°
2026-04-24 14:58 15.71189 72.41251 31770 ft 449 kts 291°
2026-04-24 14:59 15.74106 72.35568 31764 ft 446 kts 291°
2026-04-24 14:59 15.77023 72.29874 31778 ft 446 kts 291°
2026-04-24 15:00 15.79931 72.24192 31781 ft 446 kts 291°
2026-04-24 15:00 15.82827 72.18516 31789 ft 444 kts 291°
2026-04-24 15:01 15.85736 72.12827 31791 ft 446 kts 291°
2026-04-24 15:01 15.88620 72.07174 31787 ft 445 kts 291°
2026-04-24 15:02 15.91536 72.01457 31778 ft 446 kts 291°
2026-04-24 15:02 15.94413 71.95811 31771 ft 447 kts 291°
2026-04-24 15:03 15.96855 71.91026 31770 ft 446 kts 291°
2026-04-24 15:03 16.00221 71.84402 31780 ft 446 kts 291°
2026-04-24 15:04 16.03133 71.78680 31776 ft 448 kts 291°
2026-04-24 15:04 16.06034 71.72990 31777 ft 447 kts 291°
2026-04-24 15:05 16.08944 71.67266 31777 ft 447 kts 291°
2026-04-24 15:05 16.11847 71.61603 31766 ft 446 kts 292°
2026-04-24 15:06 16.14816 71.55922 31774 ft 448 kts 293°
2026-04-24 15:06 16.17795 71.50249 31776 ft 448 kts 293°
2026-04-24 15:07 16.20787 71.44532 31775 ft 448 kts 293°
2026-04-24 15:07 16.23750 71.38844 31771 ft 448 kts 293°
2026-04-24 15:08 16.26727 71.33132 31789 ft 450 kts 293°
2026-04-24 15:08 16.29690 71.27452 31791 ft 449 kts 294°
2026-04-24 15:09 16.32671 71.21736 31783 ft 448 kts 293°
2026-04-24 15:09 16.35639 71.16028 31785 ft 448 kts 294°
2026-04-24 15:10 16.38609 71.10298 31790 ft 450 kts 294°
2026-04-24 15:10 16.41592 71.04558 31791 ft 448 kts 294°
2026-04-24 15:11 16.44540 70.98867 31801 ft 449 kts 294°
2026-04-24 15:11 16.47511 70.93141 31807 ft 451 kts 294°
2026-04-24 15:12 16.50483 70.87410 31804 ft 451 kts 294°
2026-04-24 15:12 16.54964 70.78790 31813 ft 451 kts 295°
2026-04-24 15:13 16.57982 70.73037 31806 ft 451 kts 295°
2026-04-24 15:13 16.60992 70.67310 31807 ft 452 kts 295°
2026-04-24 15:14 16.64005 70.61543 31813 ft 453 kts 295°
2026-04-24 15:14 16.67001 70.55823 31807 ft 453 kts 295°
2026-04-24 15:15 16.70019 70.50030 31800 ft 452 kts 295°
2026-04-24 15:15 16.73011 70.44292 31803 ft 454 kts 295°
2026-04-24 15:16 16.76023 70.38512 31801 ft 454 kts 296°
2026-04-24 15:16 16.79041 70.32741 31816 ft 454 kts 295°
2026-04-24 15:17 16.82042 70.26972 31807 ft 454 kts 295°
2026-04-24 15:17 16.85047 70.21179 31810 ft 454 kts 295°
2026-04-24 15:18 16.88068 70.15367 31807 ft 454 kts 295°
2026-04-24 15:18 16.91080 70.09583 31809 ft 453 kts 295°
2026-04-24 15:19 16.94093 70.03774 31807 ft 455 kts 296°
2026-04-24 15:19 16.97100 69.97961 31809 ft 454 kts 296°
2026-04-24 15:20 17.00093 69.92167 31810 ft 455 kts 296°
2026-04-24 15:20 17.03085 69.86359 31811 ft 455 kts 296°
2026-04-24 15:21 17.06088 69.80553 31811 ft 457 kts 296°
2026-04-24 15:21 17.09097 69.74733 31814 ft 456 kts 296°
2026-04-24 15:22 17.12112 69.68881 31807 ft 456 kts 296°
2026-04-24 15:23 17.16611 69.60152 31804 ft 456 kts 296°
2026-04-24 15:23 17.21128 69.51398 31804 ft 456 kts 297°
2026-04-24 15:25 17.28168 69.37817 31806 ft 457 kts 297°
2026-04-24 15:26 17.36224 69.22238 31828 ft 457 kts 297°
2026-04-24 15:27 17.45274 69.04691 31830 ft 458 kts 297°
2026-04-24 15:29 17.54314 68.87112 31829 ft 458 kts 297°
2026-04-24 15:31 17.64845 68.66579 31828 ft 458 kts 297°
2026-04-24 15:33 17.76868 68.43053 31826 ft 458 kts 297°
2026-04-24 15:34 17.84371 68.28329 31836 ft 458 kts 297°
2026-04-24 15:35 17.91871 68.13575 31836 ft 458 kts 297°
2026-04-24 15:36 17.94854 68.07697 31845 ft 458 kts 297°
2026-04-24 15:36 17.99335 67.98859 31844 ft 459 kts 297°
2026-04-24 15:37 18.02339 67.92926 31848 ft 458 kts 297°
2026-04-24 15:37 18.05314 67.87046 31847 ft 456 kts 297°
2026-04-24 15:38 18.08318 67.81117 31847 ft 457 kts 298°
2026-04-24 15:38 18.11379 67.75292 31847 ft 456 kts 298°
2026-04-24 15:39 18.14442 67.69463 31848 ft 457 kts 298°
2026-04-24 15:39 18.17500 67.63631 31849 ft 457 kts 298°
2026-04-24 15:40 18.20552 67.57805 31844 ft 455 kts 298°
2026-04-24 15:40 18.23612 67.51955 31837 ft 456 kts 298°
2026-04-24 15:41 18.26655 67.46130 31830 ft 455 kts 299°
2026-04-24 15:41 18.29680 67.40333 31829 ft 454 kts 299°
2026-04-24 15:42 18.32736 67.34473 31832 ft 455 kts 298°
2026-04-24 15:42 18.35765 67.28659 31838 ft 454 kts 299°
2026-04-24 15:43 18.38798 67.22830 31829 ft 454 kts 299°
2026-04-24 15:43 18.41842 67.16973 31836 ft 455 kts 299°
2026-04-24 15:44 18.44867 67.11151 31838 ft 455 kts 299°
2026-04-24 15:44 18.47904 67.05300 31837 ft 455 kts 299°
2026-04-24 15:45 18.50939 66.99446 31848 ft 455 kts 299°
2026-04-24 15:45 18.53963 66.93609 31849 ft 455 kts 299°
2026-04-24 15:46 18.56997 66.87746 31847 ft 454 kts 299°
2026-04-24 15:46 18.60013 66.81911 31848 ft 455 kts 299°
2026-04-24 15:47 18.63032 66.76067 31851 ft 455 kts 299°
2026-04-24 15:47 18.66044 66.70230 31856 ft 454 kts 300°
2026-04-24 15:48 18.69065 66.64369 31854 ft 455 kts 300°
2026-04-24 15:48 18.72086 66.58502 31859 ft 455 kts 300°
2026-04-24 15:49 18.75105 66.52636 31857 ft 454 kts 300°
2026-04-24 15:49 18.78102 66.46805 31857 ft 455 kts 300°
2026-04-24 15:50 18.81134 66.40900 31859 ft 455 kts 300°
2026-04-24 15:50 18.84140 66.35041 31859 ft 455 kts 300°
2026-04-24 15:51 18.87142 66.29183 31863 ft 455 kts 300°
2026-04-24 15:51 18.90162 66.23286 31863 ft 455 kts 300°
2026-04-24 15:52 18.93159 66.17428 31865 ft 455 kts 300°
2026-04-24 15:52 18.96181 66.11513 31863 ft 456 kts 300°
2026-04-24 15:53 18.99196 66.05608 31868 ft 457 kts 300°
2026-04-24 15:53 19.02207 65.99706 31865 ft 456 kts 300°
2026-04-24 15:54 19.05209 65.93813 31864 ft 457 kts 300°
2026-04-24 15:54 19.08215 65.87907 31865 ft 457 kts 301°
2026-04-24 15:55 19.11210 65.82019 31869 ft 456 kts 300°
2026-04-24 15:55 19.14217 65.76100 31869 ft 455 kts 301°
2026-04-24 15:56 19.17223 65.70176 31866 ft 456 kts 301°
2026-04-24 15:56 19.20222 65.64261 31865 ft 455 kts 301°
2026-04-24 15:57 19.23228 65.58328 31865 ft 457 kts 301°
2026-04-24 15:57 19.26226 65.52399 31854 ft 456 kts 301°
2026-04-24 15:58 19.29195 65.46527 31851 ft 456 kts 301°
2026-04-24 15:58 19.32184 65.40609 31851 ft 455 kts 301°
2026-04-24 15:59 19.35177 65.34678 31850 ft 455 kts 301°
2026-04-24 15:59 19.38140 65.28798 31847 ft 455 kts 301°
2026-04-24 16:00 19.41123 65.22872 31847 ft 456 kts 301°
2026-04-24 16:00 19.44108 65.16939 31846 ft 455 kts 301°
2026-04-24 16:01 19.47078 65.11029 31847 ft 456 kts 301°
2026-04-24 16:01 19.50048 65.05110 31845 ft 455 kts 301°
2026-04-24 16:02 19.53012 64.99203 31848 ft 455 kts 301°
2026-04-24 16:02 19.56032 64.93343 31854 ft 455 kts 301°
2026-04-24 16:03 19.59084 64.87427 31855 ft 455 kts 302°
2026-04-24 16:03 19.62103 64.81566 31857 ft 456 kts 301°
2026-04-24 16:04 19.65143 64.75654 31853 ft 454 kts 302°
2026-04-24 16:04 19.68162 64.69774 31855 ft 455 kts 301°
2026-04-24 16:05 19.72691 64.60944 31852 ft 454 kts 301°
2026-04-24 16:06 19.77209 64.52120 31852 ft 454 kts 301°
2026-04-24 16:07 19.81728 64.43281 31855 ft 454 kts 301°
2026-04-24 16:07 19.86254 64.34415 31859 ft 455 kts 301°
2026-04-24 16:08 19.90752 64.25591 31866 ft 455 kts 301°
2026-04-24 16:09 19.95237 64.16776 31868 ft 454 kts 301°
2026-04-24 16:09 19.98264 64.10821 31865 ft 454 kts 301°
2026-04-24 16:11 20.05764 63.96038 31864 ft 451 kts 301°
2026-04-24 16:11 20.08731 63.90179 31861 ft 453 kts 301°
2026-04-24 16:12 20.13208 63.81326 31864 ft 452 kts 301°
2026-04-24 16:13 20.17677 63.72475 31860 ft 453 kts 301°
2026-04-24 16:14 20.23622 63.60681 31850 ft 452 kts 301°
2026-04-24 16:14 20.28059 63.51860 31847 ft 452 kts 300°
2026-04-24 16:15 20.32509 63.43001 31847 ft 453 kts 300°
2026-04-24 16:16 20.36966 63.34115 31848 ft 453 kts 300°
2026-04-24 16:17 20.44334 63.19390 31847 ft 452 kts 300°
2026-04-24 16:18 20.50238 63.07568 31848 ft 452 kts 300°
2026-04-24 16:19 20.54654 62.98707 31847 ft 452 kts 300°
2026-04-24 16:20 20.59070 62.89832 31847 ft 451 kts 300°
2026-04-24 16:20 20.63471 62.80972 31847 ft 451 kts 300°
2026-04-24 16:21 20.67876 62.72091 31847 ft 450 kts 300°
2026-04-24 16:22 20.70791 62.66206 31846 ft 449 kts 299°
2026-04-24 16:22 20.75180 62.57332 31845 ft 451 kts 299°
2026-04-24 16:23 20.78113 62.51392 31841 ft 452 kts 299°
2026-04-24 16:24 20.82484 62.42532 31834 ft 451 kts 299°
2026-04-24 16:24 20.85396 62.36622 31831 ft 450 kts 299°
2026-04-24 16:25 20.88335 62.30650 31834 ft 456 kts 298°
2026-04-24 16:25 20.89827 62.27617 31832 ft 467 kts 299°
2026-04-24 16:25 20.91356 62.24506 31830 ft 478 kts 298°
2026-04-24 16:26 20.95985 62.15075 31828 ft 478 kts 298°
2026-04-24 16:27 21.00612 62.05632 31825 ft 478 kts 298°
2026-04-24 16:27 21.03698 61.99324 31825 ft 479 kts 298°
2026-04-24 16:28 21.06763 61.93051 31823 ft 479 kts 298°
2026-04-24 16:28 21.11404 61.83541 31828 ft 479 kts 298°
2026-04-24 16:29 21.14464 61.77260 31826 ft 476 kts 298°
2026-04-24 16:30 21.20081 61.64458 31827 ft 478 kts 285°
2026-04-24 16:30 21.20897 61.57400 31834 ft 480 kts 274°
2026-04-24 16:31 21.21159 61.50261 31833 ft 480 kts 274°
2026-04-24 16:31 21.21388 61.43101 31830 ft 480 kts 274°
2026-04-24 16:32 21.21597 61.35975 31830 ft 481 kts 274°
2026-04-24 16:32 21.21796 61.28818 31828 ft 480 kts 273°
2026-04-24 16:33 21.21987 61.21696 31829 ft 478 kts 273°
2026-04-24 16:33 21.22174 61.14580 31832 ft 479 kts 273°
2026-04-24 16:34 21.22356 61.07471 31840 ft 479 kts 273°
2026-04-24 16:34 21.22535 61.00373 31836 ft 478 kts 273°
2026-04-24 16:35 21.22710 60.93251 31839 ft 479 kts 273°
2026-04-24 16:35 21.22882 60.86142 31834 ft 477 kts 273°
2026-04-24 16:36 21.23050 60.79053 31836 ft 477 kts 273°
2026-04-24 16:36 21.23215 60.72002 31827 ft 476 kts 273°
2026-04-24 16:37 21.23379 60.64900 31828 ft 477 kts 273°
2026-04-24 16:37 21.23537 60.57853 31824 ft 476 kts 273°
2026-04-24 16:38 21.23693 60.50750 31824 ft 475 kts 273°
2026-04-24 16:38 21.23847 60.43661 31822 ft 475 kts 274°
2026-04-24 16:39 21.23997 60.36581 31826 ft 475 kts 273°
2026-04-24 16:39 21.24144 60.29504 31824 ft 475 kts 273°
2026-04-24 16:40 21.24289 60.22436 31826 ft 476 kts 273°
2026-04-24 16:40 21.24429 60.15392 31826 ft 475 kts 273°
2026-04-24 16:41 21.24564 60.08331 31828 ft 475 kts 273°
2026-04-24 16:41 21.24697 60.01271 31828 ft 475 kts 273°
2026-04-24 16:42 21.24828 59.94165 31829 ft 475 kts 273°
2026-04-24 16:42 21.24955 59.87130 31821 ft 474 kts 273°
2026-04-24 16:43 21.25079 59.80072 31825 ft 475 kts 273°
2026-04-24 16:43 21.25200 59.73027 31822 ft 474 kts 274°
2026-04-24 16:44 21.25318 59.65943 31830 ft 474 kts 273°
2026-04-24 16:44 21.25433 59.58899 31832 ft 475 kts 273°
2026-04-24 16:45 21.25545 59.51850 31829 ft 476 kts 273°
2026-04-24 16:45 21.25654 59.44789 31828 ft 475 kts 273°
2026-04-24 16:46 21.25761 59.37704 31826 ft 473 kts 273°
2026-04-24 16:46 21.25864 59.30663 31831 ft 475 kts 273°
2026-04-24 16:47 21.25964 59.23622 31832 ft 473 kts 273°
2026-04-24 16:47 21.26062 59.16587 31836 ft 474 kts 273°
2026-04-24 16:48 21.26156 59.09545 31838 ft 473 kts 273°
2026-04-24 16:48 21.26247 59.02502 31839 ft 471 kts 273°
2026-04-24 16:49 21.26336 58.95506 31843 ft 471 kts 273°
2026-04-24 16:49 21.26421 58.88467 31852 ft 471 kts 273°
2026-04-24 16:50 21.26546 58.81460 31855 ft 470 kts 277°
2026-04-24 16:50 21.27895 58.74683 31866 ft 467 kts 289°
2026-04-24 16:51 21.29793 58.68043 31863 ft 466 kts 289°
2026-04-24 16:51 21.31693 58.61410 31861 ft 467 kts 289°
2026-04-24 16:52 21.33596 58.54760 31857 ft 466 kts 289°
2026-04-24 16:52 21.35481 58.48164 31858 ft 466 kts 289°
2026-04-24 16:53 21.37372 58.41536 31853 ft 463 kts 289°
2026-04-24 16:53 21.39264 58.34896 31851 ft 464 kts 288°
2026-04-24 16:54 21.41143 58.28291 31853 ft 465 kts 288°
2026-04-24 16:54 21.43024 58.21667 31848 ft 464 kts 288°
2026-04-24 16:55 21.44903 58.15040 31845 ft 465 kts 288°
2026-04-24 16:55 21.46780 58.08410 31845 ft 464 kts 288°
2026-04-24 16:56 21.48657 58.01768 31845 ft 465 kts 288°
2026-04-24 16:56 21.50518 57.95174 31850 ft 465 kts 288°
2026-04-24 16:57 21.52395 57.88509 31856 ft 464 kts 288°
2026-04-24 16:57 21.54253 57.81901 31855 ft 463 kts 288°
2026-04-24 16:58 21.56107 57.75298 31855 ft 463 kts 288°
2026-04-24 16:58 21.57958 57.68693 31857 ft 463 kts 288°
2026-04-24 16:59 21.59817 57.62042 31856 ft 464 kts 288°
2026-04-24 17:00 21.62583 57.52116 31852 ft 464 kts 288°
2026-04-24 17:00 21.65340 57.42202 31852 ft 462 kts 288°
2026-04-24 17:01 21.68087 57.32296 31858 ft 462 kts 288°
2026-04-24 17:02 21.70823 57.22407 31857 ft 462 kts 288°
2026-04-24 17:02 21.72644 57.15811 31855 ft 461 kts 288°
2026-04-24 17:03 21.75375 57.05881 31850 ft 461 kts 288°
2026-04-24 17:04 21.77177 56.99318 31840 ft 461 kts 288°
2026-04-24 17:04 21.79889 56.89420 31839 ft 460 kts 288°
2026-04-24 17:05 21.81691 56.82828 31842 ft 459 kts 288°
2026-04-24 17:06 21.84387 56.72943 31840 ft 459 kts 287°
2026-04-24 17:06 21.87067 56.63096 31832 ft 459 kts 288°
2026-04-24 17:07 21.88863 56.56484 31833 ft 458 kts 288°
2026-04-24 17:08 21.92429 56.43322 31825 ft 458 kts 288°
2026-04-24 17:08 21.94210 56.36734 31823 ft 459 kts 287°
2026-04-24 17:09 21.97750 56.23579 31819 ft 457 kts 287°
2026-04-24 17:10 22.01270 56.10444 31806 ft 458 kts 287°
2026-04-24 17:12 22.08309 55.84152 31809 ft 457 kts 287°
2026-04-24 18:54 23.74001 42.00356 31993 ft 446 kts 283°
2026-04-24 18:55 23.76792 41.90695 31998 ft 444 kts 283°
2026-04-24 18:56 23.78619 41.84373 31989 ft 432 kts 283°
2026-04-24 18:56 23.80422 41.78115 31987 ft 430 kts 283°
2026-04-24 18:57 23.82206 41.71904 31985 ft 434 kts 283°
2026-04-24 18:57 23.84003 41.65636 31987 ft 431 kts 283°
2026-04-24 18:58 23.85789 41.59399 31984 ft 431 kts 283°
2026-04-24 18:58 23.87564 41.53182 31973 ft 427 kts 283°
2026-04-24 18:59 23.89336 41.46942 31974 ft 431 kts 282°
2026-04-24 18:59 23.91102 41.40715 31967 ft 428 kts 282°
2026-04-24 19:00 23.92554 41.35587 31964 ft 427 kts 283°
2026-04-24 19:00 23.94610 41.28338 31975 ft 428 kts 282°
2026-04-24 19:01 23.96347 41.22211 31386 ft 418 kts 282°
2026-04-24 19:01 23.97205 41.19178 30561 ft 420 kts 283°
2026-04-24 19:01 23.98071 41.16110 29707 ft 422 kts 282°
2026-04-24 19:01 23.98929 41.13069 29135 ft 417 kts 283°
2026-04-24 19:02 23.99493 41.11075 28836 ft 413 kts 282°
2026-04-24 19:02 24.00606 41.07132 28204 ft 407 kts 282°
2026-04-24 19:02 24.01440 41.04169 27561 ft 406 kts 282°
2026-04-24 19:02 24.02259 41.01259 26938 ft 405 kts 282°
2026-04-24 19:03 24.03085 40.98320 26335 ft 403 kts 282°
2026-04-24 19:03 24.03905 40.95403 25773 ft 400 kts 282°
2026-04-24 19:03 24.04712 40.92532 25238 ft 397 kts 282°
2026-04-24 19:03 24.05520 40.89652 24719 ft 393 kts 282°
2026-04-24 19:04 24.06320 40.86801 24185 ft 390 kts 282°
2026-04-24 19:04 24.07103 40.84007 23633 ft 387 kts 282°
2026-04-24 19:04 24.07883 40.81222 23039 ft 385 kts 281°
2026-04-24 19:04 24.08671 40.78402 22426 ft 384 kts 281°
2026-04-24 19:05 24.09443 40.75641 21859 ft 382 kts 282°
2026-04-24 19:05 24.10403 40.72919 21300 ft 385 kts 290°
2026-04-24 19:05 24.11659 40.70362 20718 ft 385 kts 293°
2026-04-24 19:05 24.12965 40.67798 20154 ft 383 kts 294°
2026-04-24 19:06 24.14244 40.65288 19624 ft 380 kts 293°
2026-04-24 19:06 24.15513 40.62798 19214 ft 374 kts 294°
2026-04-24 19:06 24.16787 40.60297 18862 ft 373 kts 294°
2026-04-24 19:06 24.18035 40.57847 18519 ft 371 kts 294°
2026-04-24 19:07 24.19298 40.55364 18172 ft 370 kts 294°
2026-04-24 19:07 24.20540 40.52918 17820 ft 364 kts 294°
2026-04-24 19:07 24.21351 40.51333 17595 ft 359 kts 294°
2026-04-24 19:07 24.22952 40.48198 17129 ft 353 kts 294°
2026-04-24 19:08 24.24147 40.45832 16781 ft 353 kts 294°
2026-04-24 19:08 24.25333 40.43503 16429 ft 352 kts 294°
2026-04-24 19:08 24.26527 40.41135 16072 ft 351 kts 294°
2026-04-24 19:08 24.27687 40.38817 15727 ft 350 kts 294°
2026-04-24 19:09 24.28879 40.36456 15379 ft 351 kts 294°
2026-04-24 19:09 24.30059 40.34126 15045 ft 349 kts 294°
2026-04-24 19:09 24.31218 40.31839 14943 ft 343 kts 294°
2026-04-24 19:09 24.32376 40.29556 14880 ft 335 kts 294°
2026-04-24 19:10 24.33495 40.27346 14503 ft 332 kts 294°
2026-04-24 19:10 24.34605 40.25154 13987 ft 333 kts 294°
2026-04-24 19:10 24.35739 40.22910 13482 ft 334 kts 294°
2026-04-24 19:10 24.36848 40.20720 13188 ft 327 kts 294°
2026-04-24 19:11 24.37944 40.18550 12978 ft 319 kts 294°
2026-04-24 19:11 24.39008 40.16451 12581 ft 318 kts 294°
2026-04-24 19:11 24.40083 40.14312 12127 ft 319 kts 295°
2026-04-24 19:11 24.41152 40.12187 11688 ft 319 kts 295°
2026-04-24 19:12 24.42206 40.10096 11657 ft 305 kts 295°
2026-04-24 19:12 24.43236 40.08052 11685 ft 314 kts 294°
2026-04-24 19:12 24.44307 40.05913 11981 ft 327 kts 294°
2026-04-24 19:12 24.45396 40.03722 11996 ft 322 kts 295°
2026-04-24 19:13 24.46110 40.02303 11993 ft 323 kts 295°
2026-04-24 19:13 24.47567 39.99440 11997 ft 322 kts 295°
2026-04-24 19:13 24.48646 39.97290 11993 ft 320 kts 295°
2026-04-24 19:13 24.49696 39.95191 11986 ft 310 kts 294°
2026-04-24 19:14 24.50726 39.93147 11984 ft 298 kts 294°
2026-04-24 19:14 24.51709 39.91186 11977 ft 289 kts 295°
2026-04-24 19:14 24.52659 39.89297 11935 ft 276 kts 294°
2026-04-24 19:14 24.53570 39.87481 11766 ft 270 kts 294°
2026-04-24 19:15 24.54474 39.85674 11407 ft 271 kts 294°
2026-04-24 19:15 24.55376 39.83867 11053 ft 272 kts 296°
2026-04-24 19:15 24.56585 39.82263 10666 ft 280 kts 320°
2026-04-24 19:15 24.58356 39.81365 10304 ft 285 kts 342°
2026-04-24 19:16 24.62263 39.80488 9672 ft 285 kts 348°
2026-04-24 19:16 24.64202 39.80092 9434 ft 281 kts 348°
2026-04-24 19:16 24.66085 39.79697 9324 ft 271 kts 348°
2026-04-24 19:17 24.67917 39.79310 9322 ft 259 kts 348°
2026-04-24 19:17 24.69639 39.78943 9278 ft 250 kts 348°
2026-04-24 19:17 24.71334 39.78583 9136 ft 244 kts 348°
2026-04-24 19:17 24.72976 39.78233 9156 ft 231 kts 349°
2026-04-24 19:18 24.74498 39.77912 9138 ft 218 kts 349°
2026-04-24 19:18 24.75975 39.77598 8911 ft 215 kts 349°
2026-04-24 19:18 24.77456 39.77282 8632 ft 214 kts 349°
2026-04-24 19:18 24.78912 39.76973 8356 ft 213 kts 349°
2026-04-24 19:19 24.80365 39.76665 8088 ft 212 kts 349°
2026-04-24 19:19 24.81810 39.76358 7816 ft 211 kts 349°
2026-04-24 19:19 24.83266 39.76047 7551 ft 210 kts 349°
2026-04-24 19:19 24.84687 39.75734 7283 ft 210 kts 344°
2026-04-24 19:20 24.85924 39.74911 6952 ft 209 kts 309°
2026-04-24 19:20 24.86631 39.73533 6672 ft 208 kts 295°
2026-04-24 19:20 24.87166 39.72059 6401 ft 207 kts 280°
2026-04-24 19:20 24.87028 39.70503 6115 ft 203 kts 244°
2026-04-24 19:21 24.86153 39.69367 6088 ft 195 kts 219°
2026-04-24 19:21 24.85064 39.68432 6105 ft 197 kts 217°
2026-04-24 19:21 24.83992 39.67526 6177 ft 195 kts 217°
2026-04-24 19:21 24.82908 39.66600 6232 ft 195 kts 217°
2026-04-24 19:22 24.82235 39.65944 6247 ft 196 kts 231°
2026-04-24 19:22 24.81621 39.64037 6286 ft 201 kts 251°
2026-04-24 19:22 24.80897 39.62800 6273 ft 195 kts 215°
2026-04-24 19:22 24.79632 39.62317 6270 ft 193 kts 178°
2026-04-24 19:23 24.78361 39.62772 6276 ft 195 kts 150°
2026-04-24 19:23 24.77392 39.63504 6148 ft 195 kts 139°
2026-04-24 19:23 24.76453 39.64612 5941 ft 196 kts 133°
2026-04-24 19:23 24.75554 39.65731 5747 ft 196 kts 138°
2026-04-24 19:24 24.74476 39.66616 5484 ft 193 kts 156°
2026-04-24 19:24 24.73198 39.67071 5231 ft 191 kts 168°
2026-04-24 19:24 24.71900 39.67349 4983 ft 190 kts 169°
2026-04-24 19:24 24.70604 39.67611 4739 ft 188 kts 169°
2026-04-24 19:25 24.69317 39.67876 4490 ft 184 kts 169°
2026-04-24 19:25 24.68071 39.68138 4248 ft 179 kts 169°
2026-04-24 19:25 24.66887 39.68387 4016 ft 169 kts 169°
2026-04-24 19:25 24.65741 39.68628 3794 ft 167 kts 169°
2026-04-24 19:26 24.64618 39.68866 3576 ft 159 kts 170°
2026-04-24 19:26 24.63549 39.69090 3369 ft 154 kts 170°
2026-04-24 19:26 24.62487 39.69315 3156 ft 155 kts 170°
2026-04-24 19:26 24.61433 39.69537 2950 ft 155 kts 170°
2026-04-24 19:27 24.60361 39.69763 2742 ft 156 kts 170°
2026-04-24 19:27 24.59291 39.69989 2537 ft 155 kts 170°
2026-04-24 19:27 24.58228 39.70212 2331 ft 155 kts 170°
2026-04-24 19:27 24.57179 39.70426 2191 ft 149 kts 168°
2026-04-24 19:28 24.56317 39.70609 2185 ft 95 kts 169°
2026-04-24 19:28 24.55875 39.70703 2183 ft 46 kts 170°
2026-04-24 19:28 24.55580 39.70765 2182 ft 40 kts 169°
2026-04-24 19:28 24.55326 39.70858 2181 ft 35 kts 146°
2026-04-24 19:29 24.55220 39.71028 2181 ft 0 kts 79°
2026-04-24 19:29 24.55222 39.71044 2181 ft 5 kts 79°
2026-04-24 19:30 24.55232 39.71100 2181 ft 8 kts 79°
2026-04-24 19:30 24.55241 39.71150 2181 ft 5 kts 79°
2026-04-24 19:30 24.55247 39.71185 2181 ft 3 kts 70°
2026-04-24 19:30 24.55272 39.71210 2181 ft 6 kts 15°
2026-04-24 19:31 24.55330 39.71205 2181 ft 9 kts 351°
2026-04-24 19:31 24.55387 39.71194 2181 ft 7 kts 349°
2026-04-24 19:31 24.55437 39.71183 2181 ft 7 kts 348°
2026-04-24 19:31 24.55485 39.71172 2182 ft 6 kts 348°
2026-04-24 19:32 24.55533 39.71161 2182 ft 6 kts 348°
2026-04-24 19:32 24.55570 39.71153 2182 ft 5 kts 348°
2026-04-24 19:32 24.55607 39.71144 2182 ft 5 kts 348°
2026-04-24 19:32 24.55643 39.71140 2182 ft 3 kts 15°
2026-04-24 19:33 24.55658 39.71157 2182 ft 3 kts 64°
2026-04-24 19:33 24.55670 39.71196 2182 ft 3 kts 78°
2026-04-24 19:33 24.55672 39.71205 2182 ft 0 kts 78°
2026-04-24 19:33 24.55673 39.71207 2182 ft 1 kts 78°
2026-04-24 19:34 24.55675 39.71219 2182 ft 1 kts 78°
2026-04-24 19:34 24.55675 39.71224 2182 ft 0 kts 79°
2026-04-24 19:34 24.55676 39.71225 2182 ft 0 kts 79°